• In India
  • List of Countries
  • For 7 days
  • Water Temperature
  • Satellite Maps
  • Weather Map
  • Weather Widgets
  • user-avatar
    Login

    Hourly Weather Popivka

    Today, 14 August, Tuesday

    Time Temperature Precipitation Wind Pressure Humidity
    00:00 +24°C° 0 mm 2 mps 751 mmHg 56%
    01:00 +24°C° 0 mm 2 mps 751 mmHg 57%
    02:00 +24°C° 0 mm 2 mps 751 mmHg 56%
    03:00 +23°C° 0 mm 2 mps 751 mmHg 56%
    04:00 +23°C° 0 mm 2 mps 751 mmHg 56%
    05:00 +23°C° 0 mm 2 mps 752 mmHg 56%
    06:00 +24°C° 0 mm 2 mps 752 mmHg 52%
    07:00 +26°C° 0 mm 2 mps 752 mmHg 47%
    08:00 +28°C° 0 mm 2 mps 752 mmHg 42%
    09:00 +30°C° 0 mm 2 mps 752 mmHg 38%
    10:00 +31°C° 0 mm 2 mps 752 mmHg 33%
    11:00 +34°C° 0 mm 2 mps 752 mmHg 29%
    12:00 +34°C° 0 mm 2 mps 752 mmHg 28%
    13:00 +35°C° 0 mm 2 mps 752 mmHg 26%
    14:00 +35°C° 0 mm 2 mps 751 mmHg 25%
    15:00 +35°C° 0 mm 2 mps 751 mmHg 25%
    16:00 +35°C° 0 mm 2 mps 751 mmHg 26%
    17:00 +34°C° 0 mm 1 mps 751 mmHg 26%
    18:00 +32°C° 0 mm 1 mps 751 mmHg 29%
    19:00 +30°C° 0 mm 1 mps 751 mmHg 32%
    20:00 +27°C° 0 mm 1 mps 751 mmHg 35%
    21:00 +27°C° 0 mm 1 mps 751 mmHg 36%
    22:00 +26°C° 0 mm 1 mps 751 mmHg 37%
    23:00 +25°C° 0 mm 1 mps 752 mmHg 38%

    Tomorrow, 15 August, Wednesday

    Time Temperature Precipitation Wind Pressure Humidity
    00:00 +25°C° 0 mm 1 mps 752 mmHg 39%
    01:00 +24°C° 0 mm 1 mps 752 mmHg 39%
    02:00 +24°C° 0 mm 1 mps 752 mmHg 40%
    03:00 +23°C° 0 mm 1 mps 752 mmHg 41%
    04:00 +23°C° 0 mm 1 mps 752 mmHg 41%
    05:00 +22°C° 0 mm 1 mps 752 mmHg 42%
    06:00 +24°C° 0 mm 2 mps 752 mmHg 40%
    07:00 +27°C° 0 mm 2 mps 752 mmHg 38%
    08:00 +29°C° 0 mm 2 mps 752 mmHg 36%
    09:00 +30°C° 0 mm 2 mps 752 mmHg 32%
    10:00 +33°C° 0 mm 3 mps 752 mmHg 29%
    11:00 +34°C° 0 mm 3 mps 752 mmHg 25%
    12:00 +35°C° 0 mm 3 mps 752 mmHg 25%
    13:00 +35°C° 0 mm 3 mps 752 mmHg 25%
    14:00 +35°C° 0 mm 3 mps 751 mmHg 25%
    15:00 +35°C° 0 mm 3 mps 751 mmHg 27%
    16:00 +35°C° 0 mm 3 mps 751 mmHg 28%
    17:00 +35°C° 0 mm 2 mps 751 mmHg 29%
    18:00 +32°C° 0 mm 2 mps 751 mmHg 33%
    19:00 +30°C° 0 mm 2 mps 751 mmHg 36%
    20:00 +28°C° 0 mm 2 mps 751 mmHg 39%
    21:00 +27°C° 0 mm 2 mps 751 mmHg 41%
    22:00 +27°C° 0 mm 2 mps 751 mmHg 42%
    23:00 +26°C° 0 mm 2 mps 751 mmHg 44%

    Day after tomorrow, 16 August, Thursday

    Time Temperature Precipitation Wind Pressure Humidity
    00:00 +26°C° 0 mm 2 mps 751 mmHg 45%
    01:00 +25°C° 0 mm 2 mps 751 mmHg 46%
    02:00 +25°C° 0 mm 2 mps 751 mmHg 47%
    03:00 +25°C° 0 mm 2 mps 751 mmHg 47%
    04:00 +24°C° 0 mm 2 mps 751 mmHg 48%
    05:00 +24°C° 0 mm 1 mps 751 mmHg 48%
    06:00 +26°C° 0 mm 1 mps 751 mmHg 46%
    07:00 +27°C° 0 mm 1 mps 751 mmHg 43%
    08:00 +29°C° 0 mm 1 mps 751 mmHg 41%
    09:00 +30°C° 0 mm 2 mps 751 mmHg 37%
    10:00 +32°C° 0 mm 2 mps 751 mmHg 33%
    11:00 +34°C° 0 mm 2 mps 751 mmHg 30%
    12:00 +35°C° 0 mm 2 mps 751 mmHg 28%
    13:00 +35°C° 0 mm 2 mps 751 mmHg 27%
    14:00 +35°C° 0 mm 2 mps 750 mmHg 26%
    15:00 +35°C° 0 mm 2 mps 750 mmHg 27%
    16:00 +35°C° 0 mm 3 mps 750 mmHg 28%
    17:00 +34°C° 0 mm 3 mps 750 mmHg 30%
    18:00 +33°C° 0 mm 3 mps 750 mmHg 33%
    19:00 +30°C° 0 mm 3 mps 750 mmHg 37%
    20:00 +28°C° 0 mm 3 mps 751 mmHg 41%
    21:00 +27°C° 0 mm 4 mps 751 mmHg 43%
    22:00 +27°C° 0 mm 4 mps 751 mmHg 45%
    23:00 +26°C° 0 mm 4 mps 751 mmHg 47%

    17 August, Friday

    Time Temperature Precipitation Wind Pressure Humidity
    00:00 +26°C° 0 mm 4 mps 751 mmHg 50%
    01:00 +25°C° 0 mm 4 mps 751 mmHg 54%
    02:00 +25°C° 0 mm 4 mps 751 mmHg 57%
    03:00 +23°C° 0 mm 4 mps 751 mmHg 59%
    04:00 +24°C° 0 mm 3 mps 751 mmHg 61%
    05:00 +22°C° 0 mm 3 mps 751 mmHg 62%
    06:00 +24°C° 0 mm 3 mps 751 mmHg 60%
    07:00 +25°C° 0 mm 3 mps 751 mmHg 57%
    08:00 +26°C° 0 mm 3 mps 751 mmHg 55%
    09:00 +28°C° 0 mm 3 mps 751 mmHg 50%
    10:00 +30°C° 0 mm 3 mps 751 mmHg 46%
    11:00 +31°C° 0 mm 3 mps 751 mmHg 42%
    12:00 +33°C° 0 mm 3 mps 751 mmHg 39%
    13:00 +33°C° 0 mm 3 mps 751 mmHg 37%
    14:00 +34°C° 0 mm 3 mps 751 mmHg 35%
    15:00 +34°C° 0 mm 3 mps 751 mmHg 35%
    16:00 +33°C° 0 mm 3 mps 751 mmHg 36%
    17:00 +32°C° 0 mm 2 mps 751 mmHg 36%
    18:00 +30°C° 0.1 mm 2 mps 751 mmHg 40%
    19:00 +29°C° 0.1 mm 2 mps 751 mmHg 43%
    20:00 +27°C° 0.1 mm 2 mps 751 mmHg 46%
    21:00 +26°C° 0 mm 2 mps 751 mmHg 47%
    22:00 +26°C° 0 mm 2 mps 751 mmHg 48%
    23:00 +25°C° 0 mm 2 mps 751 mmHg 50%

    18 August, Saturday

    Time Temperature Precipitation Wind Pressure Humidity
    00:00 +24°C° 0 mm 2 mps 751 mmHg 52%
    01:00 +24°C° 0 mm 2 mps 751 mmHg 54%
    02:00 +23°C° 0 mm 2 mps 751 mmHg 56%
    03:00 +23°C° 0 mm 2 mps 751 mmHg 58%
    04:00 +21°C° 0 mm 2 mps 751 mmHg 60%
    05:00 +21°C° 0 mm 3 mps 752 mmHg 63%
    06:00 +24°C° 0 mm 3 mps 752 mmHg 59%
    07:00 +25°C° 0 mm 3 mps 752 mmHg 55%
    08:00 +27°C° 0 mm 3 mps 752 mmHg 50%
    09:00 +29°C° 0 mm 3 mps 752 mmHg 45%
    10:00 +31°C° 0 mm 3 mps 752 mmHg 40%
    11:00 +34°C° 0 mm 3 mps 752 mmHg 35%
    12:00 +34°C° 0 mm 2 mps 752 mmHg 32%
    13:00 +35°C° 0 mm 2 mps 752 mmHg 30%
    14:00 +35°C° 0 mm 1 mps 751 mmHg 27%
    15:00 +34°C° 0 mm 1 mps 751 mmHg 30%
    16:00 +33°C° 0 mm 1 mps 751 mmHg 33%
    17:00 +32°C° 0 mm 1 mps 751 mmHg 36%
    18:00 +31°C° 0.1 mm 2 mps 751 mmHg 39%
    19:00 +30°C° 0.1 mm 2 mps 752 mmHg 42%
    20:00 +28°C° 0.1 mm 2 mps 752 mmHg 45%
    21:00 +27°C° 0.4 mm 2 mps 752 mmHg 49%
    22:00 +26°C° 0.4 mm 2 mps 752 mmHg 54%
    23:00 +25°C° 0.4 mm 2 mps 752 mmHg 58%

    19 August, Sunday

    Time Temperature Precipitation Wind Pressure Humidity
    00:00 +25°C° 0.3 mm 2 mps 752 mmHg 62%
    01:00 +24°C° 0.3 mm 3 mps 752 mmHg 66%
    02:00 +22°C° 0.3 mm 3 mps 752 mmHg 70%
    03:00 +22°C° 0.1 mm 3 mps 752 mmHg 71%
    04:00 +22°C° 0.1 mm 3 mps 752 mmHg 72%
    05:00 +21°C° 0.1 mm 2 mps 752 mmHg 74%
    06:00 +24°C° 0 mm 2 mps 752 mmHg 68%
    07:00 +25°C° 0 mm 2 mps 752 mmHg 63%
    08:00 +27°C° 0 mm 2 mps 753 mmHg 58%
    09:00 +28°C° 0 mm 2 mps 753 mmHg 54%
    10:00 +29°C° 0 mm 2 mps 752 mmHg 51%
    11:00 +30°C° 0 mm 2 mps 752 mmHg 48%
    12:00 +31°C° 0 mm 2 mps 752 mmHg 44%
    13:00 +32°C° 0 mm 2 mps 752 mmHg 41%
    14:00 +32°C° 0 mm 2 mps 752 mmHg 37%
    15:00 +32°C° 0 mm 2 mps 752 mmHg 37%
    16:00 +32°C° 0 mm 2 mps 752 mmHg 37%
    17:00 +32°C° 0 mm 2 mps 752 mmHg 38%
    18:00 +30°C° 0 mm 2 mps 752 mmHg 43%
    19:00 +29°C° 0 mm 2 mps 752 mmHg 47%
    20:00 +27°C° 0 mm 2 mps 752 mmHg 52%
    21:00 +26°C° 0.1 mm 3 mps 752 mmHg 57%
    22:00 +25°C° 0.1 mm 3 mps 752 mmHg 61%
    23:00 +24°C° 0.1 mm 3 mps 752 mmHg 66%
    Show more